Paso Robles, CA

1:56 PM PST on December 08, 2019 (GMT -0800)
Paso Robles Municipal

Weather History for KPRB - October, 2019

Change the Weather History Date:

Thursday, October 31, 2019

  Actual Average Record
Temperature  
Mean Temperature 49 °F 57 °F  
Max Temperature 73 °F 74 °F 94 °F (1949)
Min Temperature 25 °F 41 °F 28 °F (1961)
Degree Days  
Heating Degree Days 16 8  
Month to date heating degree days 142 138  
Since 1 July heating degree days 168 170  
Cooling Degree Days 0 0  
Month to date cooling degree days 28 35  
Year to date cooling degree days 1063 926  
Moisture  
Dew Point 3 °F    
Average Humidity 19    
Maximum Humidity 37    
Minimum Humidity 5    
Precipitation  
Precipitation 0.00 in 0.03 in 0.85 in (2014)
Month to date precipitation 0.00 0.62  
Year to date precipitation 11.28 9.74  
Sea Level Pressure  
Sea Level Pressure 30.18 in    
Wind  
Wind Speed 4 mph ()    
Max Wind Speed 18 mph    
Max Gust Speed 22 mph    
Visibility 9.9 miles    
Events      
T = Trace of Precipitation, MM = Missing Value Source: Averaged Metar Reports

Daily Weather History Graph

Daily Weather History Graph

Search for Another Location

Airport or City:

Astronomy

Oct. 31, 2019 Rise Set
Actual Time 7:23 AM PDT 6:08 PM PDT
Civil Twilight 6:57 AM PDT 6:34 PM PDT
Nautical Twilight 6:26 AM PDT 7:04 PM PDT
Astronomical Twilight 5:57 AM PDT 7:34 PM PDT
Moon 11:11 AM PDT (10/31) 9:14 PM PDT (10/31)
Length of Visible Light 11h 37m
Length of Day
10h 44m
Waxing Crescent, 16% of the Moon is Illuminated
Oct 31
Waxing Crescent
Nov 4
First Quarter
Nov 12
Full
Nov 19
Last Quarter
Nov 26
New

Hourly Weather History & Observations

Time (PDT) Temp. Windchill Dew Point Humidity Pressure Visibility Wind Dir Wind Speed Gust Speed Precip Events Conditions
12:53 AM 36.0 °F 33.3 °F -2.0 °F 20% 30.21 in 10.0 mi ESE 3.5 mph - N/A   Clear
1:53 AM 37.0 °F 34.5 °F -2.0 °F 19% 30.21 in 10.0 mi NNE 3.5 mph - N/A   Clear
2:53 AM 36.0 °F - 1.9 °F 24% 30.21 in 10.0 mi Calm Calm - N/A   Clear
3:53 AM 33.1 °F - 3.0 °F 28% 30.21 in 10.0 mi Calm Calm - N/A   Clear
4:53 AM 28.0 °F 24.2 °F 1.0 °F 31% 30.21 in 10.0 mi ENE 3.5 mph - N/A   Clear
5:53 AM 30.0 °F - 5.0 °F 35% 30.22 in 10.0 mi Calm Calm - N/A   Clear
6:53 AM 28.0 °F - 3.9 °F 36% 30.23 in 10.0 mi Calm Calm - N/A   Clear
7:53 AM 27.0 °F - 3.0 °F 36% 30.25 in 8.0 mi Calm Calm - N/A   Clear
8:53 AM 36.0 °F - 6.1 °F 29% 30.25 in 10.0 mi Calm Calm - N/A   Clear
9:53 AM 45.0 °F 41.8 °F 12.0 °F 26% 30.25 in 10.0 mi North 5.8 mph - N/A   Clear
10:53 AM 53.1 °F - 10.9 °F 19% 30.23 in 10.0 mi NNW 3.5 mph - N/A   Clear
11:53 AM 64.0 °F - 3.9 °F 9% 30.20 in 10.0 mi Variable 3.5 mph - N/A   Clear
12:53 PM 71.1 °F - -0.9 °F 6% 30.17 in 10.0 mi East 11.5 mph - N/A   Clear
1:53 PM 72.0 °F - -4.0 °F 5% 30.14 in 10.0 mi East 15.0 mph - N/A   Clear
2:53 PM 72.0 °F - -4.0 °F 5% 30.12 in 10.0 mi ESE 10.4 mph - N/A   Clear
3:53 PM 73.0 °F - -4.0 °F 5% 30.12 in 10.0 mi East 11.5 mph - N/A   Clear
4:53 PM 71.1 °F - -2.0 °F 6% 30.12 in 10.0 mi East 12.7 mph - N/A   Clear
5:53 PM 66.0 °F - -0.0 °F 7% 30.11 in 10.0 mi East 15.0 mph - N/A   Clear
6:53 PM 57.9 °F - 3.9 °F 11% 30.13 in 10.0 mi East 9.2 mph - N/A   Clear
7:53 PM 51.1 °F - 7.0 °F 17% 30.15 in 10.0 mi East 6.9 mph - N/A   Clear
8:53 PM 52.0 °F - 9.0 °F 18% 30.15 in 10.0 mi SE 3.5 mph - N/A   Clear
9:53 PM 45.0 °F 43.5 °F 6.1 °F 20% 30.17 in 10.0 mi East 3.5 mph - N/A   Clear
10:53 PM 37.9 °F 35.5 °F 6.1 °F 27% 30.18 in 10.0 mi SE 3.5 mph - N/A   Clear
11:53 PM 37.0 °F 32.4 °F 7.0 °F 29% 30.17 in 10.0 mi ESE 5.8 mph - N/A   Clear